Flag for U.S.A. Weather past 2 weeks in Honolulu, Hawaii, U.S.A.

Now
81 °F

Passing clouds.


Feels Like: 84 °F
Forecast: 72 / 84 °F
Wind: 3 mph from Northeast

Location: Honolulu International Airport

Current Time: Sep 29, 2014 at 8:40:54 PM

Latest Report: Sep 29, 2014 at 7:53 PM


Visibility: 10 mi

Pressure: 29.93 "Hg

Humidity: 67%

Dew point: 69 °F

Location of HonoluluLocation

Historic Weather in Honolulu — Graph

°F

Honolulu temperature yesterday

Maximum temperature yesterday: 85 °F (at 10:53 AM)
Minimum temperature yesterday: 76 °F (at 4:53 AM)
Average temperature yesterday: 81 °F

Past Weeks' High & Low Weather Summary

 TemperatureHumidityPressure
High92 °F (Sep 22, 12:53 PM)97% (Sep 15, 5:53 AM)30.06 "Hg (Sep 15, 5:53 AM)
Low74 °F (Sep 19, 4:53 AM)37% (Sep 23, 12:53 PM)29.86 "Hg (Sep 29, 2:53 PM)
Average82 °F66%29.95 "Hg
* Reported Sep 14 6:53 PM — Sep 29 6:53 PM, Honolulu, Weather by CustomWeather, © 2014

Note: Actual official high and low records may vary slightly from our data, if they occured in-between our weather recording intervals... More about our weather records

Advertising

Honolulu weather history for previous 24 hours

 ConditionsComfort  
Time TempWeatherWind HumidityBarometerVisibility
6:53 PM
Sep 29
82 °FPartly cloudy.5 mph67%29.91 "Hg10 mi
5:53 PM84 °FBroken clouds.9 mph65%29.90 "Hg10 mi
4:53 PM82 °FBroken clouds.5 mph72%29.88 "Hg10 mi
4:31 PM82 °FPassing clouds.6 mph74%29.88 "Hg10 mi
3:53 PM85 °FThunderstorms. Partly sunny.10 mph65%29.88 "Hg10 mi
3:30 PM84 °FThunderstorms. Broken clouds.10 mph66%29.87 "Hg10 mi
2:53 PM87 °FBroken clouds.No wind55%29.86 "Hg10 mi
1:53 PM87 °FBroken clouds.10 mph59%29.88 "Hg10 mi
12:53 PM89 °FBroken clouds.7 mph52%29.90 "Hg10 mi
11:53 AM88 °FBroken clouds.10 mph55%29.92 "Hg10 mi
10:53 AM87 °FBroken clouds.7 mph55%29.93 "Hg10 mi
9:53 AM86 °FBroken clouds.8 mph57%29.95 "Hg10 mi
8:53 AM84 °FScattered clouds.5 mph59%29.95 "Hg10 mi
7:53 AM82 °FScattered clouds.8 mph67%29.93 "Hg10 mi
6:53 AM80 °FScattered clouds.6 mph71%29.92 "Hg10 mi
5:53 AM79 °FPassing clouds.No wind72%29.92 "Hg10 mi
4:53 AM80 °FPassing clouds.No wind69%29.91 "Hg10 mi
3:53 AM80 °FPassing clouds.6 mph69%29.91 "Hg10 mi
2:53 AM80 °FPassing clouds.No wind69%29.92 "Hg10 mi
1:53 AM81 °FPartly cloudy.8 mph67%29.93 "Hg10 mi
12:53 AM80 °FPartly cloudy.7 mph69%29.94 "Hg10 mi
11:53 PM
Sep 28
81 °FPartly cloudy.3 mph67%29.95 "Hg10 mi
10:53 PM81 °FPartly cloudy.5 mph67%29.96 "Hg10 mi
9:53 PM81 °FPartly cloudy.10 mph69%29.96 "Hg10 mi
8:53 PM81 °FPassing clouds.7 mph67%29.95 "Hg10 mi
Weather by CustomWeather, © 2014

See weather overviewHow to use our weather pages